Flag for U.S.A. Weather past 2 weeks in Baker Island, U.S.A.

Now
84 °F

Passing clouds.


Feels Like: 92 °F
Forecast: 81 / 84 °F
Wind: 15 mph from East

Location: Funafuti

Current Time: Sep 30, 2014 at 6:45:19 AM

Latest Report: Sep 30, 2014 at 6:00 AM


Visibility: N/A

Pressure: 29.77 "Hg

Humidity: 74%

Dew point: 75 °F

Location of Baker IslandLocation

Historic Weather in Baker Island — Graph

°F

Baker Island temperature yesterday

Maximum temperature yesterday: 90 °F (at 2:00 PM)
Minimum temperature yesterday: 81 °F (at 12:00 AM)
Average temperature yesterday: 84 °F

Past Weeks' High & Low Weather Summary

 TemperatureHumidityPressure
High90 °F (Sep 16, 12:00 PM)100% (Sep 28, 9:00 PM)29.89 "Hg (Sep 28, 9:00 PM)
Low75 °F (Sep 26, 8:00 PM)63% (Sep 24, 11:00 AM)29.71 "Hg (Sep 30, 5:00 AM)
Average84 °F80%29.82 "Hg
* Reported Sep 15 5:00 AM — Sep 30 5:00 AM, Baker Island, Weather by CustomWeather, © 2014

Note: Actual official high and low records may vary slightly from our data, if they occured in-between our weather recording intervals... More about our weather records

Advertising

Baker Island weather history for previous 24 hours

 ConditionsComfort  
Time TempWeatherWind HumidityBarometerVisibility
5:00 AM
Sep 30
82 °FPassing clouds.16 mph94%29.71 "HgN/A
3:00 AM82 °FPassing clouds.13 mph79%29.77 "HgN/A
2:00 AM82 °FPassing clouds.10 mph84%29.77 "HgN/A
1:00 AM82 °FPassing clouds.10 mph84%29.80 "HgN/A
12:00 AM84 °FPassing clouds.9 mph79%29.80 "HgN/A
11:00 PM
Sep 29
84 °FPassing clouds.8 mph79%29.83 "HgN/A
10:00 PM84 °FPassing clouds.12 mph84%29.83 "HgN/A
9:00 PM84 °FPassing clouds.10 mph79%29.80 "HgN/A
8:00 PM84 °FPassing clouds.9 mph79%29.80 "HgN/A
7:00 PM84 °FPassing clouds.8 mph84%29.77 "HgN/A
6:00 PM86 °FScattered showers. Passing clouds.7 mph79%29.77 "HgN/A
5:00 PM88 °FScattered clouds.8 mph75%29.74 "HgN/A
4:00 PM88 °FScattered clouds.7 mph75%29.74 "HgN/A
3:00 PM88 °FPassing clouds.5 mph75%29.77 "HgN/A
2:00 PM90 °FPassing clouds.6 mph71%29.77 "HgN/A
1:00 PM86 °FPartly sunny.8 mph75%29.80 "HgN/A
12:00 PM86 °FScattered showers. Broken clouds.8 mph75%29.83 "HgN/A
11:00 AM88 °FScattered showers. Scattered clouds.5 mph70%29.86 "HgN/A
10:00 AM88 °FScattered showers. Scattered clouds.5 mph75%29.86 "HgN/A
9:00 AM86 °FBroken clouds.6 mph75%29.86 "HgN/A
8:00 AM86 °FScattered clouds.5 mph75%29.86 "HgN/A
7:00 AM84 °FScattered showers. Scattered clouds.6 mph79%29.86 "HgN/A
6:00 AM81 °FScattered clouds.5 mph89%29.83 "HgN/A
Weather by CustomWeather, © 2014

See weather overviewHow to use our weather pages